EW5580 Weather Reports


Display with metric or nautical units.
time (UTC)temp
F
wind
direction
speed
MPH
gust
MPH
rain 1hr
in
rain 24hr
in
rain mn
in
humidity
%
barometer
mb
20220926184004 73 267 2.0 5.0 0.00 0.15 0.15 63 1002.9
20220926183504 73 281 1.0 9.0 0.00 0.15 0.15 65 1002.9
20220926183004 73 276 2.0 9.0 0.00 0.15 0.15 64 1002.8
20220926182503 73 279 2.0 8.0 0.00 0.15 0.15 65 1002.9
20220926182002 73 296 2.0 8.0 0.00 0.15 0.15 64 1002.8
20220926181504 73 320 2.0 9.0 0.00 0.15 0.15 65 1002.8
20220926181002 73 282 2.0 9.0 0.00 0.15 0.15 66 1002.8
20220926180505 73 265 1.0 8.0 0.00 0.15 0.15 64 1002.9
20220926180001 73 269 3.0 10.0 0.00 0.15 0.15 65 1002.8
20220926175600 72 309 2.0 10.0 0.00 0.15 0.15 66 1002.7
20220926175111 72 263 2.0 8.0 0.00 0.15 0.15 65 1002.8
20220926174559 72 24 1.0 10.0 0.00 0.15 0.15 68 1002.9
20220926174058 72 273 3.0 10.0 0.00 0.15 0.15 68 1002.9
20220926173557 71 273 3.0 9.0 0.00 0.15 0.15 70 1002.8
20220926173102 71 216 2.0 9.0 0.00 0.15 0.15 69 1002.8
20220926172556 71 80 1.0 9.0 0.00 0.15 0.15 70 1002.9
20220926172055 71 240 2.0 9.0 0.00 0.15 0.15 72 1003.0
20220926171556 70 279 0.0 9.0 0.00 0.15 0.15 72 1003.0
20220926171053 70 288 1.0 9.0 0.00 0.15 0.15 71 1003.0
20220926170552 70 285 2.0 8.0 0.00 0.15 0.15 72 1003.1
20220926170100 70 262 0.0 8.0 0.00 0.15 0.15 73 1003.2
20220926165554 69 312 3.0 8.0 0.00 0.15 0.15 75 1003.3
20220926165056 69 311 1.0 8.0 0.00 0.15 0.15 73 1003.4
20220926164551 70 333 0.0 10.0 0.00 0.15 0.15 73 1003.4
20220926164051 70 212 2.0 10.0 0.00 0.15 0.15 73 1003.4
20220926163550 70 244 1.0 9.0 0.00 0.15 0.15 74 1003.4
20220926163050 70 321 1.0 4.0 0.00 0.15 0.15 73 1003.4
20220926162549 69 315 0.0 6.0 0.00 0.15 0.15 74 1003.4
20220926162052 69 304 0.0 4.0 0.00 0.15 0.15 76 1003.4
20220926161548 69 300 1.0 8.0 0.00 0.15 0.15 75 1003.3
20220926161046 69 97 1.0 8.0 0.00 0.15 0.15 75 1003.3
20220926160546 69 146 1.0 8.0 0.00 0.15 0.15 77 1003.2
20220926160054 69 26 1.0 8.0 0.00 0.15 0.15 77 1003.4
20220926155544 69 334 3.0 9.0 0.00 0.15 0.15 75 1003.3
20220926155043 68 150 1.0 9.0 0.00 0.15 0.15 77 1003.3
20220926154544 68 300 1.0 9.0 0.00 0.15 0.15 79 1003.3
20220926154044 68 269 2.0 8.0 0.00 0.15 0.15 79 1003.3
20220926153540 67 284 0.0 4.0 0.00 0.15 0.15 83 1003.4
20220926153040 67 298 1.0 8.0 0.00 0.15 0.15 82 1003.4
20220926152539 67 5 2.0 8.0 0.00 0.15 0.15 82 1003.5
20220926152038 67 276 2.0 8.0 0.00 0.15 0.15 84 1003.4
20220926151549 67 311 0.0 3.0 0.00 0.15 0.15 87 1003.4
20220926151036 66 251 0.0 7.0 0.00 0.15 0.15 86 1003.5
20220926150534 66 277 1.0 7.0 0.00 0.15 0.15 87 1003.6
20220926150036 65 291 1.0 7.0 0.00 0.15 0.15 88 1003.5
20220926145533 65 284 1.0 7.0 0.00 0.15 0.15 89 1003.4
20220926145029 64 274 1.0 5.0 0.00 0.15 0.15 88 1003.5
20220926144528 64 213 0.0 5.0 0.00 0.15 0.15 90 1003.4
20220926144028 64 278 0.0 5.0 0.00 0.15 0.15 90 1003.3
20220926143626 63 265 0.0 2.0 0.00 0.15 0.15 91 1003.3
20220926143034 63 172 0.0 5.0 0.00 0.15 0.15 92 1003.4
20220926142525 63 315 1.0 5.0 0.00 0.15 0.15 91 1003.4
20220926142026 63 196 0.0 3.0 0.00 0.15 0.15 93 1003.5
20220926141525 62 360 0.0 2.0 0.00 0.15 0.15 95 1003.4
20220926141023 62 315 0.0 3.0 0.00 0.15 0.15 95 1003.4
20220926140526 62 315 0.0 3.0 0.00 0.15 0.15 95 1003.4
20220926140022 62 183 0.0 4.0 0.00 0.15 0.15 95 1003.4
20220926135526 62 288 0.0 4.0 0.00 0.15 0.15 96 1003.3
20220926135022 62 261 0.0 4.0 0.00 0.15 0.15 96 1003.3
20220926134522 62 125 0.0 6.0 0.00 0.15 0.15 96 1003.3
20220926134022 62 268 1.0 6.0 0.00 0.15 0.15 97 1003.2
20220926133530 61 355 0.0 4.0 0.00 0.15 0.15 96 1003.3
20220926133025 61 355 0.0 4.0 0.00 0.15 0.15 96 1003.3
20220926132529 61 278 0.0 5.0 0.00 0.15 0.15 97 1003.3
20220926132021 61 318 2.0 5.0 0.00 0.15 0.15 97 1003.2
20220926131522 61 78 1.0 9.0 0.00 0.15 0.15 97 1003.2
20220926131018 61 276 2.0 9.0 0.00 0.15 0.15 98 1003.0
20220926130518 61 284 1.0 7.0 0.00 0.15 0.15 99 1002.8
20220926130017 61 306 0.0 3.0 0.00 0.15 0.15 99 1002.8
20220926125517 61 271 0.0 3.0 0.00 0.15 0.15 99 1002.7
20220926125018 60 265 0.0 3.0 0.00 0.15 0.15 99 1002.7
20220926124518 60 84 0.0 2.0 0.00 0.15 0.15 99 1002.7
20220926124023 60 80 0.0 2.0 0.00 0.15 0.15 99 1002.5
20220926123515 60 271 0.0 2.0 0.00 0.15 0.15 99 1002.4
20220926123015 60 271 0.0 3.0 0.00 0.15 0.15 99 1002.4
20220926122514 59 235 0.0 3.0 0.00 0.15 0.15 99 1002.3
20220926122014 59 360 0.0 1.0 0.00 0.15 0.15 99 1002.4
20220926121531 59 360 0.0 2.0 0.00 0.15 0.15 99 1002.4
20220926121013 59 360 0.0 2.0 0.00 0.15 0.15 99 1002.4
20220926120513 59 342 0.0 2.0 0.00 0.15 0.15 99 1002.4
20220926120022 59 355 0.0 2.0 0.00 0.15 0.15 99 1002.4
20220926115512 59 283 0.0 3.0 0.00 0.15 0.15 99 1002.4
20220926115012 59 283 0.0 3.0 0.00 0.15 0.15 99 1002.3
20220926114511 58 262 0.0 3.0 0.00 0.15 0.15 99 1002.2
20220926114010 58 261 0.0 0.0 0.00 0.15 0.15 99 1002.2
20220926113510 58 261 0.0 0.0 0.00 0.15 0.15 99 1002.0
20220926113009 58 261 0.0 0.0 0.00 0.15 0.15 99 1001.9
20220926112511 58 261 0.0 0.0 0.00 0.15 0.15 99 1001.9
20220926112008 58 261 0.0 0.0 0.00 0.15 0.15 99 1001.8
20220926111507 58 261 0.0 1.0 0.00 0.15 0.15 99 1001.7
20220926111005 58 261 0.0 2.0 0.00 0.15 0.15 99 1001.6
20220926110507 57 261 0.0 2.0 0.00 0.15 0.15 99 1001.5
20220926110008 58 267 0.0 0.0 0.00 0.15 0.15 99 1001.6
20220926105514 58 267 0.0 0.0 0.00 0.15 0.15 99 1001.4
20220926105010 58 267 0.0 0.0 0.00 0.15 0.15 99 1001.4
20220926104510 58 267 0.0 0.0 0.00 0.15 0.15 99 1001.2
20220926104005 58 267 0.0 0.0 0.00 0.15 0.15 99 1001.1
20220926103503 58 267 0.0 0.0 0.00 0.15 0.15 99 1001.0
20220926103011 58 267 0.0 0.0 0.00 0.15 0.15 99 1001.0
20220926102507 58 267 0.0 0.0 0.00 0.15 0.15 99 1000.9
20220926102004 58 267 0.0 0.0 0.00 0.15 0.15 99 1000.9
20220926101503 57 267 0.0 0.0 0.00 0.15 0.15 99 1000.8
20220926101002 57 267 0.0 0.0 0.00 0.15 0.15 99 1000.8
20220926100505 57 267 0.0 0.0 0.00 0.15 0.15 98 1000.7
20220926100002 57 267 0.0 0.0 0.00 0.15 0.15 98 1000.6
20220926095501 57 267 0.0 1.0 0.00 0.15 0.15 98 1000.4
20220926095003 57 267 0.0 1.0 0.00 0.15 0.15 98 1000.3
20220926094501 57 267 0.0 1.0 0.00 0.15 0.15 98 1000.3
20220926094001 57 267 0.0 1.0 0.00 0.15 0.15 98 1000.3
20220926093503 57 267 0.0 0.0 0.00 0.15 0.15 98 1000.1
20220926093001 57 267 0.0 0.0 0.00 0.15 0.15 98 1000.0
20220926092500 57 267 0.0 0.0 0.00 0.15 0.15 98 1000.0
20220926092002 57 267 0.0 0.0 0.00 0.15 0.15 98 999.9
20220926091502 57 267 0.0 0.0 0.00 0.15 0.15 98 999.9
20220926091103 57 267 0.0 0.0 0.00 0.15 0.15 98 999.9
20220926090600 57 267 0.0 0.0 0.00 0.15 0.15 99 999.9
20220926090100 57 267 0.0 0.0 0.00 0.15 0.15 98 999.9
20220926085559 57 267 0.0 0.0 0.00 0.15 0.15 98 999.9
20220926085058 57 267 0.0 0.0 0.00 0.15 0.15 97 999.9
20220926084630 57 267 0.0 0.0 0.00 0.15 0.15 98 999.8
20220926084057 57 267 0.0 0.0 0.00 0.15 0.15 98 999.8
20220926083558 57 267 0.0 0.0 0.00 0.15 0.15 98 999.7
20220926083108 57 267 0.0 0.0 0.00 0.15 0.15 98 999.5
20220926082558 58 267 0.0 0.0 0.00 0.15 0.15 98 999.6
20220926082056 58 267 0.0 0.0 0.00 0.15 0.15 98 999.5
20220926081559 58 267 0.0 0.0 0.00 0.15 0.15 98 999.6
20220926081055 58 267 0.0 0.0 0.00 0.15 0.15 98 999.6
20220926080555 58 267 0.0 0.0 0.00 0.15 0.15 98 999.5
20220926080055 58 267 0.0 0.0 0.00 0.15 0.15 98 999.5
20220926075554 58 267 0.0 0.0 0.00 0.15 0.15 98 999.4
20220926075057 58 267 0.0 0.0 0.00 0.15 0.15 97 999.4
20220926074603 58 267 0.0 0.0 0.00 0.15 0.15 97 999.5
20220926074052 58 267 0.0 0.0 0.00 0.15 0.15 97 999.5
20220926073555 58 267 0.0 0.0 0.00 0.15 0.15 97 999.4
20220926073057 58 267 0.0 0.0 0.00 0.15 0.15 97 999.5
20220926072551 59 267 0.0 0.0 0.00 0.15 0.15 97 999.5
20220926072055 59 267 0.0 0.0 0.00 0.15 0.15 96 999.3
20220926071550 59 267 0.0 0.0 0.01 0.15 0.15 97 999.3
20220926071049 59 267 0.0 0.0 0.01 0.15 0.15 97 999.3
20220926070548 59 267 0.0 0.0 0.01 0.15 0.15 96 999.4
20220926070048 60 267 0.0 0.0 0.01 0.15 0.15 97 999.5
20220926065549 60 267 0.0 0.0 0.01 0.15 0.15 96 999.6
20220926065046 60 267 0.0 0.0 0.01 0.15 0.15 96 999.5
20220926064548 60 267 0.0 0.0 0.01 0.15 0.15 97 999.5
20220926064044 60 267 0.0 0.0 0.02 0.15 0.15 97 999.6
20220926063544 60 267 0.0 0.0 0.02 0.15 0.15 97 999.4
20220926063043 61 267 0.0 0.0 0.04 0.15 0.15 97 999.5
20220926062546 61 267 0.0 0.0 0.06 0.15 0.15 97 999.5
20220926062042 61 267 0.0 0.0 0.08 0.15 0.15 97 999.8
20220926061605 61 267 0.0 0.0 0.08 0.14 0.14 97 999.8
20220926061041 61 267 0.0 0.0 0.10 0.14 0.14 97 999.9
20220926060541 61 267 0.0 0.0 0.11 0.14 0.14 97 999.8
20220926060041 61 267 0.0 0.0 0.12 0.14 0.14 97 1000.0
20220926055538 61 267 0.0 1.0 0.12 0.14 0.14 96 1000.1
20220926055038 61 267 0.0 1.0 0.12 0.14 0.14 96 1000.5
20220926054547 61 267 0.0 3.0 0.13 0.14 0.14 96 1000.9
20220926054036 61 298 0.0 3.0 0.13 0.13 0.13 95 1001.3
20220926053536 62 190 0.0 5.0 0.13 0.13 0.13 95 1001.1
20220926053043 62 190 0.0 5.0 0.11 0.11 0.11 95 1000.8
20220926052539 62 244 0.0 14.0 0.09 0.09 0.09 94 1001.2
20220926052035 62 292 1.0 14.0 0.07 0.07 0.07 94 1001.2
20220926051539 62 269 1.0 9.0 0.06 0.06 0.06 95 1001.3
20220926051035 62 308 0.0 10.0 0.04 0.04 0.04 94 1001.2
20220926050532 62 259 2.0 8.0 0.03 0.03 0.03 95 1000.9
20220926050039 62 259 1.0 8.0 0.02 0.02 0.02 95 1001.2
20220926045531 62 146 0.0 5.0 0.02 0.02 0.02 95 1001.3
20220926045031 62 148 1.0 2.0 0.02 0.02 0.02 94 1001.4
20220926044552 62 288 0.0 2.0 0.01 0.01 0.01 94 1001.2
20220926044033 62 226 0.0 0.0 0.00 0.00 0.00 93 1000.9
20220926043528 62 226 0.0 0.0 0.00 0.00 0.00 93 1000.9
20220926043045 62 226 0.0 0.0 0.00 0.00 0.00 93 1001.0
20220926042527 62 226 0.0 1.0 0.00 0.00 0.00 93 1001.0
20220926042038 63 226 0.0 1.0 0.00 0.00 0.00 92 1000.8
20220926041605 63 226 0.0 2.0 0.00 0.00 0.00 92 1000.6
20220926041027 63 322 0.0 0.0 0.00 0.00 0.00 92 1000.5
20220926040525 63 322 0.0 0.0 0.00 0.00 0.00 92 1000.6
20220926040023 63 322 0.0 3.0 0.00 0.00 0.00 92 1000.7
20220926035526 63 322 0.0 3.0 0.00 0.00 0.00 92 1000.8
20220926035026 63 263 0.0 3.0 0.00 0.00 0.00 92 1000.8
20220926034537 63 262 0.0 3.0 0.00 0.00 0.00 93 1000.7
20220926034023 63 39 0.0 2.0 0.00 0.00 0.00 93 1000.7
20220926033523 63 287 0.0 2.0 0.00 0.00 0.00 93 1000.8
20220926033025 63 273 0.0 2.0 0.00 0.00 0.00 93 1000.9
20220926032522 63 273 0.0 3.0 0.00 0.00 0.00 93 1000.9
20220926032028 63 273 0.0 3.0 0.00 0.00 0.00 93 1000.9
20220926031520 63 274 0.0 1.0 0.00 0.00 0.00 94 1000.8
20220926031019 63 274 0.0 2.0 0.00 0.00 0.00 94 1000.8
20220926030620 63 274 0.0 2.0 0.00 0.00 0.00 94 1000.9
20220926030027 63 286 0.0 0.0 0.00 0.00 0.00 94 1000.9
20220926025519 63 286 0.0 3.0 0.00 0.00 0.00 94 1000.8
20220926025018 63 53 0.0 0.0 0.00 0.00 0.00 95 1000.9
20220926024533 63 53 0.0 3.0 0.00 0.00 0.00 95 1000.9
20220926024018 63 46 0.0 3.0 0.00 0.00 0.00 95 1000.9
20220926023516 63 323 0.0 0.0 0.00 0.00 0.00 95 1001.0
20220926023017 63 323 0.0 0.0 0.00 0.00 0.00 94 1001.1
20220926022515 63 323 0.0 0.0 0.00 0.00 0.00 94 1001.2
20220926022016 63 323 0.0 0.0 0.00 0.00 0.00 94 1001.2
20220926021530 64 323 0.0 0.0 0.00 0.00 0.00 94 1001.3
20220926021015 64 323 0.0 0.0 0.00 0.00 0.00 93 1001.3
20220926020515 64 323 0.0 2.0 0.00 0.00 0.00 93 1001.3
20220926020021 64 323 0.0 2.0 0.00 0.00 0.00 93 1001.2
20220926015514 64 322 0.0 1.0 0.00 0.00 0.00 93 1001.3
20220926015019 64 322 0.0 1.0 0.00 0.00 0.00 93 1001.3
20220926014550 65 325 0.0 0.0 0.00 0.00 0.00 93 1001.4
20220926014015 65 325 0.0 0.0 0.00 0.00 0.00 93 1001.4
20220926013516 65 325 0.0 0.0 0.00 0.00 0.00 93 1001.3
20220926013014 65 325 0.0 2.0 0.00 0.00 0.00 93 1001.3
20220926012514 65 325 0.0 4.0 0.00 0.00 0.00 93 1001.3
20220926012023 65 311 0.0 4.0 0.00 0.00 0.00 93 1001.3
20220926011528 65 274 0.0 1.0 0.00 0.00 0.00 93 1001.2
20220926011013 65 274 0.0 3.0 0.00 0.00 0.00 93 1001.2
20220926010515 65 273 0.0 3.0 0.00 0.00 0.00 93 1001.3
20220926010018 65 271 0.0 3.0 0.00 0.00 0.00 93 1001.3
20220926005513 65 271 0.0 3.0 0.00 0.00 0.00 93 1001.2
20220926005020 65 271 0.0 2.0 0.00 0.00 0.00 93 1001.3
20220926004513 65 275 0.0 2.0 0.00 0.00 0.00 93 1001.2
20220926004020 65 275 0.0 2.0 0.00 0.00 0.00 93 1001.3
20220926003516 65 267 0.0 1.0 0.00 0.00 0.00 93 1001.3
20220926003012 65 252 0.0 3.0 0.00 0.00 0.00 93 1001.2
20220926002511 65 252 0.0 3.0 0.00 0.00 0.00 93 1001.3
20220926002010 65 281 0.0 0.0 0.00 0.00 0.00 93 1001.2
20220926001513 65 281 0.0 0.0 0.00 0.00 0.00 93 1001.4
20220926001008 65 281 0.0 1.0 0.00 0.00 0.00 93 1001.4
20220926000508 65 281 0.0 4.0 0.00 0.00 0.00 93 1001.5
20220926000008 65 219 0.0 0.0 0.00 0.00 0.00 93 1001.5
20220925235507 65 219 0.0 0.0 0.00 0.00 0.00 93 1001.5
20220925235015 65 219 0.0 0.0 0.00 0.00 0.00 92 1001.6
20220925234507 65 219 0.0 0.0 0.00 0.00 0.00 92 1001.7
20220925234010 65 219 0.0 1.0 0.00 0.00 0.00 92 1001.6
20220925233507 65 219 0.0 1.0 0.00 0.00 0.00 92 1001.7
20220925233007 65 219 0.0 2.0 0.00 0.00 0.00 92 1001.7
20220925232510 65 219 0.0 2.0 0.00 0.00 0.00 92 1001.7
20220925232006 65 215 0.0 2.0 0.00 0.00 0.00 92 1001.7
20220925231516 65 213 0.0 2.0 0.00 0.00 0.00 93 1001.8
20220925231007 65 142 0.0 1.0 0.00 0.00 0.00 93 1001.7
20220925230504 65 142 0.0 1.0 0.00 0.00 0.00 93 1001.8
20220925230005 65 144 0.0 1.0 0.00 0.00 0.00 92 1001.8
20220925225507 65 132 0.0 0.0 0.00 0.00 0.00 93 1001.7
20220925225007 65 131 0.0 0.0 0.00 0.00 0.00 92 1001.7
20220925224508 65 131 0.0 0.0 0.00 0.00 0.00 92 1001.8
20220925224004 65 131 0.0 0.0 0.00 0.00 0.00 92 1001.9
20220925223502 65 131 0.0 0.0 0.00 0.00 0.00 92 1002.1
20220925223002 65 131 0.0 0.0 0.00 0.00 0.00 92 1002.1
20220925222502 65 131 0.0 0.0 0.00 0.00 0.00 92 1002.2
20220925222002 65 131 0.0 0.0 0.00 0.00 0.00 92 1002.1
20220925221502 65 131 0.0 0.0 0.00 0.00 0.00 92 1002.0
20220925221101 65 131 0.0 0.0 0.00 0.00 0.00 91 1002.1
20220925220600 65 131 0.0 2.0 0.00 0.00 0.00 91 1002.2
20220925220100 65 131 0.0 2.0 0.00 0.00 0.00 91 1002.3
20220925215600 65 248 0.0 0.0 0.00 0.00 0.00 91 1002.3
20220925215059 65 248 0.0 2.0 0.00 0.00 0.00 91 1002.3
20220925214731 65 248 0.0 2.0 0.00 0.00 0.00 91 1002.4
20220925214102 65 270 0.0 0.0 0.00 0.00 0.00 91 1002.4
20220925213558 65 271 0.0 0.0 0.00 0.00 0.00 90 1002.3
20220925213104 65 271 0.0 0.0 0.00 0.00 0.00 90 1002.5
20220925212557 65 271 0.0 0.0 0.00 0.00 0.00 90 1002.5
20220925212056 65 271 0.0 1.0 0.00 0.00 0.00 90 1002.7
20220925211604 65 271 0.0 1.0 0.00 0.00 0.00 89 1002.7
20220925211101 66 271 0.0 1.0 0.00 0.00 0.00 88 1002.7
20220925210554 66 266 0.0 2.0 0.00 0.00 0.00 88 1003.0
20220925210158 66 266 0.0 2.0 0.00 0.00 0.00 87 1003.1
20220925205554 66 267 0.0 2.0 0.00 0.00 0.00 87 1002.9
20220925205053 66 258 0.0 2.0 0.00 0.00 0.00 86 1002.9
20220925204553 66 257 0.0 2.0 0.00 0.00 0.00 85 1003.0
20220925204053 66 260 0.0 1.0 0.00 0.00 0.00 84 1003.0
20220925203555 66 260 0.0 1.0 0.00 0.00 0.00 85 1003.2
20220925203100 66 260 0.0 1.0 0.00 0.00 0.00 85 1003.3
20220925202554 66 260 0.0 1.0 0.00 0.00 0.00 84 1003.2
20220925202050 66 259 0.0 0.0 0.00 0.00 0.00 83 1003.3
20220925201549 66 259 0.0 0.0 0.00 0.00 0.00 83 1003.3
20220925201051 66 259 0.0 0.0 0.00 0.00 0.00 82 1003.4
20220925200549 66 259 0.0 0.0 0.00 0.00 0.00 81 1003.4
20220925200057 66 260 0.0 0.0 0.00 0.00 0.00 80 1003.5
20220925195547 67 260 0.0 0.0 0.00 0.00 0.00 79 1003.5
20220925195046 67 260 0.0 1.0 0.00 0.00 0.00 78 1003.6
20220925194546 67 260 0.0 1.0 0.00 0.00 0.00 76 1003.7
20220925194045 67 260 0.0 2.0 0.00 0.00 0.00 76 1003.7
20220925193545 67 260 0.0 3.0 0.00 0.00 0.00 75 1003.7
20220925193044 67 276 0.0 2.0 0.00 0.00 0.00 75 1003.8
20220925192543 67 294 0.0 1.0 0.00 0.00 0.00 74 1003.9
20220925192042 67 294 0.0 3.0 0.00 0.00 0.00 74 1003.9
20220925191545 68 294 0.0 3.0 0.00 0.00 0.00 74 1004.0
20220925191041 68 300 0.0 2.0 0.00 0.00 0.00 72 1004.1
20220925190542 68 111 0.0 4.0 0.00 0.00 0.00 70 1004.1
20220925190051 68 103 0.0 8.0 0.00 0.00 0.00 71 1004.1
20220925185539 68 186 1.0 8.0 0.00 0.00 0.00 70 1004.2
20220925185039 69 329 0.0 4.0 0.00 0.00 0.00 71 1004.2
20220925184638 69 283 0.0 4.0 0.00 0.00 0.00 71 1004.1